Погода в Кургане

Хотите узнать прогноз погоды в Кургане? Тогда Вам сюда: Погода в Кургане

Поиск расширенной информации на нашем сайте:

Полезная информация:

Новости сайта



02.01.2020
Опубликован Долгосрочный прогноз погоды по городам России и ближнего зарубежья на январь 2020 года.
Карты: Прогноз на январь и февраль 2020 года, Сравнение прогнозируемой аномалии приземной температуры воздуха на январь 2020 года по разным моделям.




Погода в Кургане - сегодня

Время (UTC), дата Ветер
(°,м/с) 
Видим.   Явления Облачность Т
(°С)
Тd
(°С)
f(%) Тe
(°С)
Pmin
(гПа)
dP
(гПа)
Po
(мм)
O2
(г/м3)
Тmin Tmax R s Состояние
почвы
00 19.01.20 340 (С) 2{12}  10 км  {снег}  ясно 
-7.3 -12.2 68 -9  1020.8  3.6  758  315           
03 19.01.20 тихо ()   10 км    ясно 
-13.6 -15.8 83 -14  1023.7  2.6  760  324  -13.6    0.0  24  равномерный
сухой снег
100% 
06 19.01.20 тихо ()   20000 м    ясно 
-12 -13.9 86 -12  1025.3  1.6  762  322  -15.1         
09 19.01.20 190 (Ю) 20000 м    4/0 средняя, верхняя 
[Ac trans|Ci fib]
-6.8 -14 56 -8  1025.5  0.4  762  316           
12 19.01.20 180 (Ю) 20000 м    8/0 средняя, верхняя 
[Ac trans|Ci fib]
-9.4 -13.6 71 -9  1026.2  0.7  762  319           
15 19.01.20 140 (ЮВ) 10 км    10/0 средняя 
[Ac und]
-11.1 -13.9 80 -11  1026.3  762  321    -5.9       
18 19.01.20 150 (ЮВ) 10 км  {снег}  10/0 средняя 
[Ac und]
-8.6 -12.7 72 -8  1025.2  -1  762  318           
21 19.01.20 130 (ЮВ) 4000 м  слаб. снег  10/0 средняя 
[As op]
-9.2 -11.4 84 -11  1023.1  -2.1  760  318           
00 20.01.20 140 (ЮВ) 20000 м  слаб. снег  10/10 300 м 
[Ns]
-8.2 -9.9 88 -10  1020.4  -2.6  758  316           
03 20.01.20 150 (ЮВ) 4000 м  слаб. снег  10/10 300 м 
[Ns]
-7 -8.6 88 -7  1017.6  -2.7  756  314  -11.1    29  равномерный
сухой снег
100% 
06 20.01.20 160 (Ю) 4000 м  слаб. снег  10/10 300 м 
[Ns]
-5.7 -7.4 88 -7  1015.6  -1.9  755  311           
09 20.01.20 140 (ЮВ) 4000 м  слаб. снег  10/10 300 м 
[Ns]
-4.3 -6.5 85 -4  1013.4  -2.1  753  309           
12 20.01.20 040 (СВ) 4000 м  слаб. снег  10/10 300 м 
[Ns]
-6 -7.8 87 -6  1012.9  -0.6  753  311           
15 20.01.20 010 (С) 10 км  слаб. снег  10/0 средняя 
[As op]
-10.8 -12.4 88 -11  1013.5  0.4  753  317    -4.2     
18 20.01.20 020 (С) 10 км  {снег}  10/0 средняя 
[Ac As]
-11.7 -13.5 86 -14  1014.4  0.9  754  318           
21 20.01.20 020 (С) 10 км    10/0 средняя 
[Ac und]
-12.4 -14.1 87 -16  1014.5  754  319           
00 21.01.20 360 (С) 10 км  слаб. снег  10/0 средняя 
[As op]
-12.9 -14.7 86 -13  1014.8  0.2  754  320           
03 21.01.20 020 (С) 10 км  слаб. снег  10/0 средняя 
[As op]
-13 -14.9 86 -13  1014.9  0.2  754  320  -13.4    0.0  29  равномерный
сухой снег
100% 
06 21.01.20 020 (С) 4000 м  слаб. снег  10/0 средняя 
[Ac und]
-12.2 -14 86 -12  1015  0.1  754  319           
09 21.01.20 360 (С) 20000 м  {снег}  10/0 верхняя 
[Ci fib]
-10.5 -12.2 87 -10  1014  -0.9  753  317           
12 21.01.20 080 (В) 10 км  слаб. снег  10/10 1000 м 
[Sc]
-11.2 -13.1 86 -11  1013.2  -0.8  753  317           
15 21.01.20 090 (В) 10 км  слаб. снег  10/10 1000 м 
[Sc]
-11.3 -13.1 87 -11  1012.1  -1.1  752  317    -10.3  0.2     
18 21.01.20 тихо ()   10 км  слаб. снег  10/10 1000 м 
[Sc]
-10.9 -12.7 87 -11  1010.1  -2  750  316           
21 21.01.20 140 (ЮВ) 10 км  слаб. снег  10/10 1000 м 
[Sc]
-10.9 -12.9 85 -11  1007.8  -2.2  749  315           
00 22.01.20 150 (ЮВ) 10 км  слаб. снег  10/10 1000 м 
[Sc]
-10.6 -12.5 86 -10  1005.5  -2.2  747  314           
Время (UTC), дата Ветер
(°,м/с) 
Видим.   Явления Облачность Т
(°С)
Тd
(°С)
f(%) Тe
(°С)
Pmin
(гПа)
dP
(гПа)
Po
(мм)
O2
(г/м3)
Тmin Tmax R s Состояние
почвы

Для получения пояснительной информации подведите курсор к названию столбца.

ПОГОДА в Кургане - архив

Всё, что Вы хотите узнать о погоде в Кургане - удобно и подробно!

Выберите нужную дату (начиная с 1 января 2019* года) и нажмите кнопку "Найти".
Будут отображены архивные сводки погоды по пункту Курган, начиная с указанной даты.


Отображать данные в формате CSV (для использования в таблицах Excel)


Внимание! Наш архив погоды предназначен исключительно для личного некоммерческого использования в познавательных целях. Если Вам необходимы официальные справки о состоянии погоды (для производственных, юридических, коммерческих и т.п. целей), обращайтесь в органы Росгидромета.

*Примечание: данная дата относится к архиву по метеостанциям СССР (Россия, СНГ, Балтия).
Архив по метеостанциям Зарубежной Европы и Азии (кроме Китая) хранится 10 дней, по другим регионам земного шара (Китай, Африка, Америка, Австралия, Океания) - 1 день.

Курган - район местоположения метеостанции


Название, широта, долгота, высота метеостанции:
Курган 55.5°ш. 65.4°д. 74 м над ур. моря [Российская Федерация]

Дополнительная информация

В oтличие oт бoльшинства пoгoдных сайтoв мы публикуем пoдрoбную метеoинфoрмацию в детальнoм прoфессиoнальнoм фoрмате.

Характеристики температуры и влажнoсти вoздуха измеряются на высoте 2 м в тени вдали oт зданий и деревьев.
Скoрoсть ветра измеряется на высoте 10 м (на урoвне рoста челoвека скoрoсть ветра ниже в 1.5-2 раза). Если метеoстанция нахoдится в гoрoде или в лесу, тo скoрoсть ветра занижена на 2-4 м/с пo сравнению с oткрытым местoм. Скoрoсть ветра над акватoриями крупных рек и oзёр, а также на вершинах хoлмoв на 2-5 м/с выше, чем в oбычных услoвиях.
Атмoсфернoе давление в разных тoчках местнoсти мoжет значительнo oтличаться oт давления на метеoстанции, в зависимoсти oт услoвий рельефа (при пoдъёме на 10 м давление пoнижается примернo на 1 мм рт.ст.).